Location: Koslow
(50.3020°N, 18.5663°E)
Time: 04:23:41
(UTC+00:00)

STARLINK-1357 - Pass Details

Date: 23 June 2021
Orbit: 546 x 548 km, 53.1° (Epoch: 03 August)

Event Time Altitude Azimuth Distance (km) Brightness Sun altitude
Rises 07:32:49 0° 283° (WNW) 2,714 6.7 43.8°
Reaches altitude 10° 07:36:31 10° 249° (WSW) 1,816 6.0 44.3°
Drops below altitude 10° 07:39:09 10° 212° (SSW) 1,811 6.3 44.7°
Enters shadow 08:21:29 -75° 103° (ESE) 12,892 10.2 50.9°
Exits shadow 08:54:47 -37° 326° (NW) 8,495 9.0 55.3°
Maximum altitude 23:14:44 19° 135° (SE) 1,348 5.2 -16.1°
